Abraham Lincoln Capital Airport Airport (SPI)

 

Airport Diagram
Current Weather/Forecast (VFR Conditions)
METAR KSPI 272352Z AUTO 15010KT 10SM FEW020 OVC036 23/19 A2985 RMK AO2 SLP105 60000 T02280194 10261 20228 58003
TAF KSPI 272326Z 2800/2824 16005KT P6SM SCT012 OVC025 FM280900 17005KT 4SM BR OVC007 FM281200 21008KT P6SM BKN025 FM281400 22011KT P6SM VCSH SCT025 BKN120

All Charts
General
Chart Name Download
AIRPORT DIAGRAM
TAKEOFF MINIMUMS
ALTERNATE MINIMUMS
RADAR MINIMUMS
HOT SPOT
LAHSO

Approaches
Chart Name Download
ILS OR LOC RWY 04
ILS OR LOC RWY 22
ILS OR LOC RWY 31
RNAV (GPS) RWY 04
RNAV (GPS) RWY 13
RNAV (GPS) RWY 22
RNAV (GPS) RWY 31
VOR/DME RWY 13
VOR/DME RWY 22
VOR/DME RWY 31
VOR RWY 04


Inbound Traffic (Arrivals)

No inbound traffic.


Outbound Traffic (Departures)

No outbound traffic.